Location: Azul
(36.7830°S, 59.8500°W)
Time: 19:30:48
(UTC-03:00)

ISS - Pass Details

Date: 10 August 2020
Orbit: 418 x 420 km, 51.6° (Epoch: 08 August)

Event Time Altitude Azimuth Distance (km) Brightness Sun altitude
Exits shadow 06:12:02 39° 186° (S) 660 -2.9 -19.6°
Maximum altitude 06:12:50 48° 143° (SE) 565 -3.0 -19.4°
Drops below altitude 10° 06:16:08 10° 67° (ENE) 1,510 0.2 -18.7°
Sets 06:18:16 0° 61° (ENE) 2,369 1.3 -18.3°
